THORAD AGENA D DEB, 4943

Orbit data source: Space-Track

THORAD AGENA D DEB, 4943 is space debris in SSO originally from a launch on Wed, 08 Apr 1970 UTC launched from the Air Force Western Test Range (AFWTR). Debris objects in space refer to the collection of defunct objects orbiting the Earth. Examples of debris include non-operational satellites, rocket bodies, and fragments generated from explosions, collisions, or faulty payload assembly.

Loading next visibility...
Identifier
4943, 1970-025GD
Orbit
SSO
Country
Flag of USUS
Related business
Manufacturer
Unknown
Mission
Spacecraft
Bus & Motor
Unknown
Mass
Unknown
Launch date (UTC)
1970-04-08 (56 years ago)
Launch vehicle
Unknown
Launch site
Air Force Western Test Range (AFWTR)
Object type
Payload
Rocket body
Debris
Shape & HBR
Unknown shape, 0.1 m
Radar Cross Section
Medium (>0.1 m² and <1 m²)

Expand to show TLE details & history
Last TLE update: 19 hours ago

TLE from 19 hours ago
0 THORAD AGENA D DEB
1 04943U 70025GD  26207.81285794  .00000229  00000-0  66547-3 0  9999
2 04943  99.6449 168.7405 0228835  81.9821 341.0370 13.10670303686913
Epoch: 2026-07-26T19:30Z
TLE epoch observation values (Epoch: 2026-07-26T19:30:30.926Z)
Latitude
60.7415°
Longitude
-85.95848°
Altitude
1,066.789 km
Speed
7.403 km/s
True Right ascension
10h 04m 42s
True Declination
60° 36' 03"
Sunlit
Object was in daylight at epoch
Visualization orbit readout
Latitude
Unknown
Longitude
Unknown
Altitude
Unknown
Speed
Unknown
Apparent Right ascension
Unknown
Apparent Declination
Unknown
Sunlit
N/A
Visualization observer readout
Local Sidereal Time
03:53:06
Azimuth
Unknown
Elevation
Unknown
Doppler factor
Unknown
Orbital elements
Apogee altitude
1,391.741 km
Perigee altitude
1,044.092 km
Semi-major axis
7,596.053 km
Eccentricity
0.02288
Inclination
99.6449°
RAAN
168.7405°
Arg. of periapsis
81.9821°
True anomaly
340.16125°
Mean anomaly
341.037°
Eccentric anomaly
340.60153°
Mean motion
3.27839 °/min
Orbital period
109.81 mins
BSTAR
0.00066547
Loading maneuver chart data...
Computing Atmospheric mass density...

Documentation

Showing up to 5 results
|